Retour au catalogue

STARLINK-36653

ActifCommunicationsVLEO
NORAD 67842·PAYLOAD·🇺🇸 United States

Lancé Feb 16, 2026 depuis Vandenberg Space Force Base

Loading…

Prochains Passages (prochaines 24 heures)

TLE

FraisSource: CelesTrak SupGP

Époque: Sep 14, 2026, 23:17 UTC

1 67842C 26033X   26257.97062500  .00039336  00000+0  14249-2 0  2574
2 67842  43.0019 277.9827 0001400 262.0285  87.2298 15.27555466    11

Suivez STARLINK-36653 en temps réel avec AllMySat

Download on the App Store